Regional Weather Roundup
Issued by NWS

Home | Current Version | Previous Version | Graphics & Text | Print | Product List | Glossary On
Versions: 1 2 3 4 5 6 7 8 9 10 11 12 13 14 15 16 17 18 19 20 21 22 23 24 25 26 27 28 29 30 31 32 33 34 35 36 37 38 39 40 41 42 43 44 45 46 47 48 49 50
000
ASUS43 KFSD 280602
RWRSD

WEATHER ROUNDUP FOR SOUTH DAKOTA
NATIONAL WEATHER SERVICE SIOUX FALLS SD
100 AM CDT THU APR 28 2016

NOTE: "FAIR" INDICATES FEW OR NO CLOUDS BELOW 12,000 FEET WITH NO
SIGNIFICANT WEATHER AND/OR OBSTRUCTIONS TO VISIBILITY.


SDZ001>005-009-010-012>017-280700-
NORTHWEST AND NORTH CENTRAL SOUTH DAKOTA

CITY           SKY/WX    TMP DP  RH WIND       PRES   REMARKS
BUFFALO          N/A     34  32  92 N12       29.92S WCI  25
FAITH            N/A     32  30  92 N13       29.93S WCI  22
MOBRIDGE       LGT RAIN  38  36  92 NE13      29.92R
$$

SDZ012>016-024>037-041>051-057-063-072>074-280700-
SOUTHWEST AND SOUTH CENTRAL SOUTH DAKOTA

CITY           SKY/WX    TMP DP  RH WIND       PRES   REMARKS
RAPID CTY ARPT CLOUDY    32  31  96 N17       29.94R WCI  21
PIERRE         CLOUDY    36  34  92 NE13      29.89R
CUSTER         FLURRIES  27  21  78 NW6       29.87R WCI  20
ELLSWORTH AFB  LGT RAIN  32  32 100 N14       29.93S WCI  22
PHILIP         MIX PCPN  33  32  96 N10       29.92R WCI  25
PINE RIDGE     LGT SNOW  31  29  92 NW8       29.91R FOG     WCI  23
WINNER         CLOUDY    39  36  89 N12       29.84R
$$

SDZ004>011-016>023-039-040-280700-
NORTHEAST SOUTH DAKOTA

CITY           SKY/WX    TMP DP  RH WIND       PRES   REMARKS
ABERDEEN       LGT SNOW  35  32  88 N12       29.94R FOG     WCI  27
WATERTOWN      CLOUDY    38  34  85 NE14      29.86R
BROOKINGS      CLOUDY    40  38  93 NE13G21   29.80S
SISSETON         N/A     38  31  76 NE16      29.92S
$$

SDZ017-020-022-023-036>040-048>070-280700-
SOUTHEAST SOUTH DAKOTA

CITY           SKY/WX    TMP DP  RH WIND       PRES   REMARKS
SIOUX FALLS    LGT RAIN  42  39  89 NE13      29.77R
HURON          CLOUDY    40  39  97 NE13      29.85S
MITCHELL       LGT RAIN  42  41  96 N12       29.82S FOG
YANKTON        CLOUDY    43  39  87 NE10      29.74S
$$

ABBREVIATIONS USED IN REMARKS
   TC - TEMPERATURE IN CELSIUS
  WCI - WIND CHILL INDEX
   HX - HEAT INDEX
  VSB - VISIBILITY





USA.gov is the U.S. government's official web portal to all federal, state and local government web resources and services.